Probability
22 23 24 27 32 35 35 34 34 35 31 26 27 29 27 23 17 14 15 18 19 18 18 18 18 17 16 14 12 10 9 9 10 8 6 5 5 4 6 9 9 9 9
25 27 27 27 31 35 35 33 33 34 33 31 33 34 30 24 17 14 15 17 18 16 16 17 16 16 15 13 12 11 9 8 8 7 6 6 5 4 5 7 8 9 9
27 28 28 28 30 34 35 33 34 35 35 35 36 35 31 24 18 16 17 17 15 14 14 15 14 14 14 13 12 11 8 6 5 5 6 6 6 5 4 5 6 8 8
24 25 25 26 30 34 36 36 35 36 34 33 33 31 28 24 21 19 18 16 15 13 13 13 13 13 12 11 9 8 6 4 3 3 4 5 6 6 4 4 5 7 7
19 19 20 23 29 33 36 37 36 34 31 29 29 28 25 24 23 22 19 16 15 14 12 13 13 13 12 9 6 5 4 4 4 4 3 2 3 5 4 3 5 6 7
16 15 16 21 26 31 33 33 33 31 28 26 25 24 23 23 23 22 19 16 15 13 12 13 13 13 12 10 7 5 4 4 5 5 3 1 2 3 4 4 4 5 7
14 14 15 20 26 30 30 28 27 27 25 23 21 20 20 21 21 19 17 15 14 13 13 12 13 13 12 11 8 6 5 5 6 6 5 4 3 4 6 5 4 4 4
13 13 16 21 26 29 28 25 23 23 23 22 20 19 18 17 16 16 15 14 13 13 12 13 13 13 12 11 9 7 6 6 6 5 6 7 6 7 8 7 5 4 4
12 14 18 24 27 28 27 25 23 21 22 22 21 19 17 15 13 13 13 13 12 11 12 12 12 13 12 11 10 8 7 7 6 5 6 8 9 8 8 7 6 5 5
14 16 21 26 28 27 26 25 23 19 18 18 17 16 15 13 11 10 10 11 10 10 10 10 10 11 11 11 10 8 7 8 7 6 7 9 9 8 7 6 6 6 6
17 20 23 25 25 23 20 19 18 15 12 12 12 13 12 11 9 7 8 9 9 8 8 7 7 8 9 9 9 7 7 7 8 8 7 7 8 7 7 6 6 6 6
18 20 22 22 21 17 13 11 11 11 9 8 9 11 10 9 8 7 7 8 7 6 5 4 4 5 6 6 6 5 4 5 6 7 7 6 6 7 7 6 6 6 4
17 19 20 20 18 14 9 7 7 8 7 6 7 8 9 8 8 8 7 6 5 4 4 3 3 3 4 3 3 2 2 3 4 6 7 6 6 7 6 6 6 6 5
17 19 19 19 17 15 10 6 5 6 5 4 4 5 6 6 6 7 6 5 5 5 5 4 5 4 3 1 1 1 1 2 4 5 6 6 6 6 5 3 4 6 6
17 19 19 19 19 17 13 7 5 5 3 3 2 3 3 3 3 4 5 6 6 6 6 7 8 7 3 1 0 0 0 1 2 4 4 4 4 5 3 2 1 3 5
17 19 19 19 19 18 13 8 6 4 2 1 1 1 1 1 1 1 3 5 6 8 9 10 10 8 3 0 0 0 0 0 0 1 1 1 1 2 2 1 0 0 1
17 18 19 19 19 18 15 9 5 3 1 0 0 0 0 0 0 0 1 4 7 11 12 12 10 7 2 0 0 0 0 0 0 0 0 0 0 1 1 1 1 1 0
16 18 19 20 20 20 17 10 4 1 0 0 0 0 0 0 0 0 1 4 8 12 13 11 9 6 2 0 0 0 0 0 1 1 0 0 0 0 0 1 2 2 1
16 17 18 19 21 22 18 12 6 2 0 0 0 0 0 0 0 1 3 6 9 10 10 8 7 5 2 0 0 0 0 0 2 2 1 0 0 0 0 1 2 2 2
15 16 16 19 22 23 20 14 9 6 3 1 0 1 1 1 1 3 5 7 8 8 7 7 6 5 2 0 0 0 0 0 1 2 1 0 0 0 0 0 1 1 1
15 15 16 19 23 23 20 16 13 11 7 4 3 4 4 2 2 4 6 8 7 7 6 6 6 5 2 0 0 0 0 0 0 0 0 0 0 0 0 0 0 0 0
15 15 16 20 22 22 20 17 15 14 11 9 8 8 6 3 2 3 6 7 7 6 6 5 4 3 1 0 0 0 0 0 0 0 0 0 0 0 0 0 0 0 0
14 14 15 17 19 19 18 17 15 13 13 13 12 10 7 5 3 4 4 5 6 6 5 3 1 1 0 0 0 0 0 0 0 0 0 0 0 0 0 0 0 0 0
13 13 13 14 15 15 15 14 12 11 11 12 12 10 8 7 6 5 4 5 6 6 4 2 0 0 0 0 0 0 0 0 0 0 0 0 0 0 0 0 0 0 0
14 13 13 13 13 13 12 10 9 9 10 12 11 8 6 6 5 4 4 4 5 4 3 2 0 0 0 0 0 0 0 0 0 0 0 0 0 0 0 1 1 1 1
14 14 14 13 12 11 10 8 9 9 11 12 10 6 4 4 2 2 3 3 2 2 1 1 0 0 0 0 0 0 0 0 0 0 0 0 0 0 0 1 2 2 2
Wind_Speed
5 5 4 4 3 3 3 2 2 2 1 1 1 1 1 1 1 1 1 1 1 1 1 1 1 1 1 1 1 1 2 2 2 2 3 3 4 4 3 2 3 3 3
4 5 4 4 3 3 3 2 1 2 0 0 1 1 1 1 1 0 1 1 1 1 2 1 1 1 1 1 1 2 2 3 2 2 3 3 3 2 3 2 2 3 2
5 4 3 3 3 3 2 2 2 1 0 0 1 1 1 1 0 0 0 1 1 1 1 1 1 1 1 1 2 2 2 3 3 2 2 2 2 2 2 2 3 3 3
5 4 3 3 3 2 2 2 2 2 1 1 1 1 1 1 1 0 0 0 1 1 1 0 0 1 1 1 2 1 2 3 4 3 2 3 2 2 2 2 2 3 3
5 2 2 3 3 3 3 3 3 2 1 0 1 1 1 1 1 1 1 1 0 1 0 0 0 1 1 1 2 2 3 2 4 3 3 4 3 4 3 4 3 3 3
5 3 3 3 3 3 3 4 3 2 1 0 1 1 2 2 1 1 1 1 0 0 1 0 0 1 1 2 2 2 3 3 3 4 3 3 3 3 3 3 4 3 3
4 4 3 3 3 2 3 3 3 2 1 1 1 2 2 1 1 2 1 1 0 1 1 1 1 1 1 2 1 2 2 3 3 3 3 3 4 3 3 3 4 4 3
4 3 4 4 3 3 4 4 4 3 2 1 1 1 1 1 1 1 1 1 0 0 0 0 1 1 1 1 1 1 2 2 3 4 4 3 3 3 3 3 3 4 4
4 4 4 3 3 4 4 3 3 2 1 1 0 1 1 1 2 2 2 1 1 0 0 1 1 0 0 1 1 1 2 2 2 3 3 3 3 3 3 3 3 3 4
4 4 4 4 3 4 4 3 2 1 1 0 1 0 1 1 1 1 1 1 1 1 1 1 1 1 1 1 1 2 2 2 2 2 2 3 3 3 3 3 3 3 3
5 4 4 4 4 4 3 3 2 1 1 0 1 1 1 1 1 1 1 1 1 1 1 1 1 1 1 1 1 2 2 2 3 3 3 3 3 3 3 2 2 2 2
4 5 5 4 4 3 3 2 1 1 0 0 0 0 1 1 1 1 1 1 0 1 1 1 1 2 2 1 2 3 2 2 2 3 3 4 3 3 3 2 2 2 2
4 4 4 3 3 2 2 1 1 0 0 1 1 0 0 1 1 1 1 1 1 1 1 1 1 2 2 2 3 3 3 3 2 2 2 3 3 4 3 3 3 2 3
4 4 3 3 2 2 2 1 1 1 0 1 1 0 0 1 1 1 1 1 1 1 1 1 1 1 2 2 3 3 3 3 3 2 2 2 2 3 4 3 3 3 3
4 4 3 3 2 2 1 1 1 1 1 0 0 1 1 1 1 1 1 1 1 1 1 1 1 1 1 3 4 4 4 3 3 3 3 2 2 3 3 3 3 3 2
4 4 3 3 2 1 1 1 1 0 1 0 0 1 0 0 0 0 0 0 1 1 1 1 1 1 2 3 4 4 4 4 4 4 4 3 2 3 3 4 3 3 3
3 4 3 3 2 1 1 1 1 1 1 0 0 0 0 1 1 1 0 1 1 1 1 1 1 1 1 2 3 4 3 3 3 3 4 5 4 4 4 3 3 3 4
3 3 3 3 2 2 1 1 1 0 0 0 1 1 1 1 1 1 0 1 1 1 1 1 1 1 1 1 2 4 3 3 3 3 3 3 3 5 5 4 4 3 2
4 3 2 2 2 2 1 1 0 0 1 1 1 1 1 1 1 1 1 1 1 2 1 1 1 1 1 1 2 3 3 2 3 2 2 2 2 3 4 3 4 4 3
3 2 2 2 2 2 1 1 1 1 1 1 1 1 1 1 1 1 1 1 2 2 2 2 1 1 1 2 0 2 2 3 3 2 1 2 2 2 3 3 3 4 4
3 2 1 2 2 1 1 1 1 1 1 2 2 1 1 1 1 1 1 2 2 2 2 2 2 2 1 2 2 1 2 3 4 3 2 1 1 2 4 4 4 5 5
2 2 1 1 1 1 1 1 1 1 1 1 1 1 1 2 1 1 1 1 2 3 3 3 2 1 2 2 3 4 4 4 4 4 3 2 3 4 5 5 5 6 5
2 1 1 1 1 1 1 1 1 1 1 1 2 2 2 1 2 2 2 2 3 3 2 1 1 1 1 2 2 4 5 6 4 4 6 7 7 6 5 7 7 5 2
1 1 1 1 1 1 1 0 1 1 1 2 2 2 2 2 2 1 2 2 2 2 1 2 2 1 1 1 0 2 3 4 4 4 7 8 8 7 6 4 3 3 2
0 0 1 1 1 0 0 1 1 1 2 2 3 3 3 2 1 1 1 2 1 0 1 2 2 2 1 1 1 2 2 3 3 5 4 3 2 2 2 2 2 2 2
1 1 1 1 1 1 1 1 1 1 1 2 3 3 2 2 2 2 2 1 2 2 2 1 1 0 1 2 2 4 5 6 5 3 3 3 3 3 2 2 2 2 2
Wind_Direction
136 130 127 122 118 109 110 117 135 126 156 171 225 241 253 272 247 216 154 173 201 233 239 288 234 257 270 274 301 293 284 269 266 277 282 268 247 238 233 241 256 252 237
119 122 127 122 125 125 124 129 130 126 172 71 305 280 283 258 245 21 126 179 182 211 223 244 248 245 273 277 287 280 289 287 282 280 287 282 271 263 245 216 226 250 247
123 125 128 123 128 125 142 141 131 108 83 325 302 329 321 265 241 104 150 159 179 196 237 212 232 266 267 269 269 267 267 280 279 259 267 288 290 303 265 246 239 236 236
121 125 129 122 120 121 131 116 106 84 68 342 329 301 290 313 333 24 93 216 206 192 169 191 188 261 281 296 279 287 285 279 281 279 256 253 271 275 289 272 255 255 254
102 107 119 118 123 119 115 109 105 99 84 350 317 313 325 333 358 0 13 304 242 209 123 147 169 268 283 293 301 314 300 289 290 291 289 281 269 251 255 277 283 272 249
123 136 132 127 127 122 118 115 128 136 140 70 4 340 341 342 347 326 323 300 267 125 36 347 267 253 273 279 277 282 294 298 298 295 291 287 288 283 272 269 275 268 263
121 120 123 117 107 113 110 105 105 90 78 58 9 347 338 319 284 279 282 293 322 80 31 344 300 273 254 256 264 283 285 290 293 289 287 288 286 284 281 279 280 281 274
130 130 122 110 104 98 100 98 98 92 67 46 352 316 329 304 312 301 292 282 334 92 155 245 265 263 268 286 297 286 289 299 298 295 293 286 285 289 284 275 279 283 281
128 120 111 109 104 94 87 84 93 105 112 131 251 270 298 330 340 320 288 315 13 297 359 271 275 319 314 302 285 287 295 300 292 291 292 289 288 290 285 276 264 262 276
121 111 107 98 84 89 93 91 92 86 72 31 308 18 8 332 320 305 357 17 341 336 326 335 331 329 309 300 293 299 301 298 291 281 288 297 299 302 293 285 269 255 258
122 116 108 102 89 89 93 88 92 98 94 97 353 19 10 338 329 324 338 328 329 332 340 324 302 281 287 318 315 301 304 307 308 309 315 308 305 310 306 295 285 271 261
117 119 110 105 101 99 101 101 97 124 168 174 80 30 10 346 328 315 302 320 344 307 315 311 306 304 320 329 313 313 317 307 313 319 326 323 320 318 308 303 298 286 275
111 108 112 112 109 106 100 108 145 210 215 138 102 74 27 343 321 326 336 354 6 357 325 313 309 319 339 333 317 309 306 303 304 315 324 328 336 334 325 313 307 301 300
130 124 122 118 114 115 114 137 184 148 136 106 113 99 14 343 333 360 16 22 5 350 343 338 328 327 347 340 323 318 315 311 304 303 308 332 355 345 330 324 324 318 315
137 135 131 123 126 125 121 108 47 54 57 62 102 91 10 12 3 24 27 2 325 324 344 334 331 332 335 339 345 333 324 326 328 336 328 347 2 353 335 330 334 327 320
140 136 129 122 122 118 123 102 71 114 114 351 2 94 14 358 340 354 310 346 341 332 339 327 317 324 345 4 6 352 328 327 339 342 335 324 338 329 306 301 302 303 293
136 133 131 123 117 115 123 110 113 113 147 216 308 94 309 296 293 300 346 334 319 306 297 299 318 6 19 356 355 344 320 322 330 329 324 322 341 343 330 320 302 289 278
98 107 116 121 123 120 127 126 130 149 223 266 282 292 280 265 265 273 285 278 281 276 278 285 307 314 343 7 355 339 307 300 300 303 304 313 331 338 339 333 334 331 337
92 97 107 122 122 122 125 120 132 235 267 278 289 304 300 293 285 300 309 289 282 276 271 269 265 284 8 71 356 328 297 293 294 290 310 327 335 352 339 328 323 323 319
86 90 112 116 121 133 131 154 219 249 266 277 291 303 319 315 317 286 272 274 266 264 273 269 249 239 188 164 306 315 302 309 310 310 329 350 331 334 325 309 306 304 301
108 104 107 113 117 131 143 188 233 281 272 272 282 298 297 259 232 239 241 251 261 267 267 264 242 197 188 173 187 239 294 311 314 317 320 341 291 294 296 292 287 285 293
121 119 117 128 134 136 164 219 241 276 273 277 282 279 265 274 265 245 259 254 259 260 255 256 250 196 170 160 196 222 251 289 305 309 320 327 302 294 295 289 283 292 302
128 140 180 167 161 165 195 240 263 287 295 298 284 276 268 258 254 242 236 245 249 259 265 260 256 234 148 148 189 234 259 277 283 303 311 306 292 288 277 260 267 276 279
148 160 199 210 187 204 205 256 274 290 283 287 281 265 251 243 239 239 245 247 261 274 302 323 329 323 38 75 32 283 277 286 283 294 298 291 277 269 270 277 267 247 259
6 204 252 251 237 240 240 244 272 272 279 276 277 274 264 250 222 221 257 260 359 68 4 355 343 334 1 356 304 288 298 304 315 314 291 287 290 285 274 276 278 268 256
38 10 315 303 299 284 268 259 253 238 252 269 268 269 261 229 222 211 217 221 212 182 173 182 230 311 169 233 289 298 295 297 308 307 289 298 306 307 310 304 295 280 278